CW5532 Weather Reports


Display with metric or nautical units.
time (UTC)temp
F
wind
direction
speed
MPH
gust
MPH
rain 1hr
in
rain 24hr
in
rain mn
in
humidity
%
barometer
mb
20260507113707 68 118 2.0 12.0 0.00 0.00 0.00 55 1011.2
20260507110707 67 176 0.0 3.0 0.00 0.00 0.00 58 1011.7
20260507103706 66 117 2.0 6.0 0.00 0.00 0.00 62 1012.1
20260507103207 65 190 2.0 9.0 0.00 0.00 0.00 62 1012.2
20260507093207 64 122 1.0 6.0 0.00 0.00 0.00 66 1012.6
20260507090708 63 68 0.0 3.0 0.00 0.00 0.00 69 1012.4
20260507083707 62 93 2.0 5.0 0.00 0.00 0.00 71 1012.6
20260507080707 59 78 0.0 0.0 0.00 0.00 0.00 74 1012.9
20260507073207 58 117 0.0 0.0 0.00 0.00 0.00 75 1013.2
20260507063207 52 252 0.0 0.0 0.00 0.00 0.00 82 1012.8
20260507053206 45 229 0.0 0.0 0.00 0.00 0.00 85 1012.5
20260507050706 43 270 0.0 0.0 0.00 0.00 0.00 85 1012.5
20260507043706 43 227 0.0 0.0 0.00 0.00 0.00 85 1012.3
20260507040706 44 257 0.0 0.0 0.00 0.00 0.00 85 1012.4
20260507033707 44 264 0.0 0.0 0.00 0.00 0.00 85 1012.3
20260507023706 44 253 0.0 0.0 0.00 0.00 0.00 84 1012.2
20260507023206 44 256 0.0 0.0 0.00 0.00 0.00 84 1012.3
20260507020706 45 262 0.0 0.0 0.00 0.00 0.00 84 1012.2
20260507010206 46 263 0.0 0.0 0.00 0.00 0.00 84 1012.4
20260507000706 46 291 0.0 0.0 0.00 0.00 0.00 83 1012.8
20260506223706 49 291 0.0 0.0 0.00 0.01 0.00 82 1012.6
20260506223206 50 291 0.0 0.0 0.00 0.01 0.00 82 1012.5
20260506213205 52 291 0.0 0.0 0.00 0.01 0.01 80 1012.3
20260506210205 53 291 0.0 0.0 0.00 0.01 0.01 79 1011.8
20260506193705 56 292 0.0 0.0 0.00 0.06 0.01 73 1010.7
20260506193205 56 262 0.0 0.0 0.00 0.06 0.01 73 1010.6
20260506190705 58 263 0.0 0.0 0.00 0.06 0.01 66 1010.1
20260506183705 64 254 0.0 0.0 0.00 0.06 0.01 56 1009.4
20260506183206 64 253 0.0 1.0 0.00 0.06 0.01 56 1009.4
20260506180205 68 235 0.0 3.0 0.00 0.18 0.01 46 1008.9
20260506173705 68 261 1.0 9.0 0.00 0.24 0.01 46 1008.8
20260506163205 69 267 6.0 14.0 0.00 0.27 0.01 43 1009.0
20260506160705 69 260 6.0 12.0 0.00 0.27 0.01 46 1009.0
20260506160205 69 214 1.0 16.0 0.00 0.27 0.01 46 1008.9
20260506153704 69 253 4.0 10.0 0.00 0.27 0.01 47 1008.8
20260506130704 68 306 9.0 13.0 0.00 0.27 0.01 49 1010.1
20260506123705 66 302 2.0 15.0 0.00 0.27 0.01 51 1010.3
20260506123205 67 260 6.0 14.0 0.00 0.27 0.01 50 1010.3